Weather History for Kodiak, AK

Change the Weather History Date:

Saturday, March 30, 2013

  Actual Average Record
Temperature  
Mean Temperature 38 °F 34 °F  
Max Temperature 44 °F 39 °F 52 °F (1970)
Min Temperature 32 °F 29 °F 5 °F (2004)
Degree Days  
Heating Degree Days 27 31  
Month to date heating degree days 987 967  
Since 1 July heating degree days 6908 6840  
Cooling Degree Days 0    
Month to date cooling degree days 0  
Year to date cooling degree days 0  
Moisture  
Dew Point 32 °F    
Average Humidity 0    
Maximum Humidity 0    
Minimum Humidity 0    
Precipitation  
Precipitation T in 0.18 in 0.97 in (1958)
Month to date precipitation 4.45 5.36  
Year to date precipitation 20.63 19.79  
Snow  
Snow 0.00 in 0.30 in 3.80 in (1951)
Month to date snowfall 11.7 10.9  
Since 1 July snowfall 60.1 60.3  
Snow Depth 0.00 in    
Sea Level Pressure  
Sea Level Pressure 30.08 in    
Wind  
Wind Speed 5 mph (South)    
Max Wind Speed 15 mph    
Max Gust Speed 18 mph    
Visibility 10 miles    
Events Rain    
T = Trace of Precipitation, MM = Missing Value Source: NWS Daily Summary

Daily Weather History Graph

Daily Weather History Graph

Search for Another Location

Airport:

Trip Planner

Search our weather history database for the weather conditions in past years. The results will help you decide how hot, cold, wet, or windy it might be!

Date:

Astronomy

Mar. 30, 2013 Rise Set
Actual Time 7:42 AM AKDT 8:47 PM AKDT
Civil Twilight 7:02 AM AKDT 9:27 PM AKDT
Nautical Twilight 6:14 AM AKDT 10:16 PM AKDT
Astronomical Twilight 5:19 AM AKDT 11:11 PM AKDT
Moon 12:44 AM AKDT (3/30) 8:56 AM AKDT (3/30)
Length of Visible Light 14h 24m
Length of Day
13h 04m
Waning Gibbous, 85% of the Moon is Illuminated
Mar 30
Waning Gibbous
Apr 2
Last Quarter
Apr 10
New
Apr 18
First Quarter
Apr 25
Full

Hourly Weather History & Observations

Time (AKDT) Temp. Windchill Dew Point Humidity Pressure Visibility Wind Dir Wind Speed Gust Speed Precip Events Conditions
12:53 AM 37.0 °F - 30.9 °F 79% 29.96 in 10.0 mi Calm Calm - N/A   Partly Cloudy
1:53 AM 34.0 °F - 30.9 °F 89% 29.97 in 10.0 mi Calm Calm - N/A   Overcast
2:53 AM 33.1 °F 30.0 °F 30.9 °F 92% 29.99 in 10.0 mi West 3.5 mph - N/A   Overcast
3:53 AM 33.1 °F - 30.9 °F 92% 29.99 in 10.0 mi Calm Calm - N/A   Overcast
4:53 AM 34.0 °F - 32.0 °F 92% 30.01 in 10.0 mi Calm Calm - 0.00 in Rain Light Rain
5:17 AM 35.6 °F 30.7 °F 33.8 °F 93% 30.01 in 10.0 mi SE 5.8 mph - 0.00 in Rain Light Rain
5:50 AM 35.6 °F - 33.8 °F 93% 30.01 in 10.0 mi Calm Calm - 0.00 in   Overcast
5:53 AM 35.1 °F 32.2 °F 33.1 °F 92% 30.01 in 10.0 mi SSE 3.5 mph - 0.00 in   Overcast
6:53 AM 34.0 °F - 33.1 °F 96% 30.03 in 10.0 mi Calm Calm - N/A   Overcast
7:34 AM 35.6 °F - 33.8 °F 93% 30.03 in 10.0 mi Calm Calm - N/A   Mostly Cloudy
7:53 AM 33.1 °F - 32.0 °F 96% 30.04 in 10.0 mi Calm Calm - N/A   Mostly Cloudy
8:53 AM 34.0 °F 29.8 °F 33.1 °F 96% 30.05 in 10.0 mi SE 4.6 mph - N/A   Mostly Cloudy
9:53 AM 37.9 °F 33.5 °F 33.1 °F 83% 30.07 in 10.0 mi SSE 5.8 mph - N/A   Mostly Cloudy
10:53 AM 39.0 °F 33.4 °F 32.0 °F 76% 30.09 in 10.0 mi South 8.1 mph - N/A   Clear
11:53 AM 41.0 °F 35.2 °F 32.0 °F 70% 30.10 in 10.0 mi South 9.2 mph - N/A   Mostly Cloudy
12:53 PM 42.1 °F 35.7 °F 32.0 °F 67% 30.12 in 10.0 mi South 11.5 mph - N/A   Mostly Cloudy
1:53 PM 42.1 °F 35.2 °F 30.9 °F 65% 30.12 in 10.0 mi South 12.7 mph - N/A   Mostly Cloudy
2:53 PM 43.0 °F 37.2 °F 30.9 °F 62% 30.13 in 10.0 mi South 10.4 mph - N/A   Mostly Cloudy
3:53 PM 41.0 °F 34.7 °F 33.1 °F 73% 30.13 in 10.0 mi SE 10.4 mph - N/A   Mostly Cloudy
4:53 PM 43.0 °F 37.7 °F 34.0 °F 71% 30.13 in 10.0 mi South 9.2 mph - N/A   Mostly Cloudy
5:00 PM 42.8 °F 37.5 °F 33.8 °F 70% 30.13 in 10.0 mi South 9.2 mph - N/A   Overcast
5:16 PM 42.8 °F 38.6 °F 32.0 °F 66% 30.13 in 10.0 mi South 6.9 mph - N/A   Mostly Cloudy
5:53 PM 41.0 °F 34.7 °F 32.0 °F 70% 30.14 in 10.0 mi SSE 10.4 mph - N/A   Mostly Cloudy
6:53 PM 39.9 °F 33.9 °F 30.9 °F 70% 30.14 in 10.0 mi SSW 9.2 mph - N/A   Mostly Cloudy
7:53 PM 39.0 °F 34.8 °F 30.9 °F 73% 30.15 in 10.0 mi South 5.8 mph - N/A   Mostly Cloudy
8:53 PM 37.9 °F - 32.0 °F 79% 30.17 in 10.0 mi Calm Calm - N/A   Mostly Cloudy
9:53 PM 37.0 °F 34.5 °F 30.9 °F 79% 30.18 in 10.0 mi ESE 3.5 mph - N/A   Mostly Cloudy
10:53 PM 37.0 °F 34.5 °F 32.0 °F 82% 30.18 in 10.0 mi South 3.5 mph - 0.00 in   Mostly Cloudy
11:53 PM 34.0 °F - 32.0 °F 92% 30.19 in 10.0 mi Calm Calm - N/A   Scattered Clouds